Regional Weather Roundup
Issued by NWS

Home | Current Version | Previous Version | Graphics & Text | Print | Product List | Glossary On
Versions: 1 2 3 4 5 6 7 8 9 10 11 12 13 14 15 16 17 18 19 20 21 22 23 24 25 26 27 28 29 30 31 32 33 34 35 36 37 38 39 40 41 42 43 44 45 46 47 48 49 50
000
ASUS45 KTFX 141610
RWRMT
MONTANA REGIONAL WEATHER ROUNDUP
NATIONAL WEATHER SERVICE GREAT FALLS MT
900 AM MST THU DEC 14 2017

NOTE: "FAIR" INDICATES FEW OR NO CLOUDS BELOW 12000 FEET WITH NO
SIGNIFICANT WEATHER AND/OR OBSTRUCTIONS TO VISIBILITY.

MTZ001>007-043-141700-
WEST OF THE DIVIDE

CITY           SKY/WX    TMP DP  RH WIND       PRES   REMARKS
KALISPELL      CLOUDY    25  23  92 CALM      30.51F
MISSOULA       CLOUDY    28  24  85 CALM      30.51S
BUTTE          CLOUDY    23  19  85 SE5       30.42F
MULLAN PASS    FAIR      22  20  92 S6        30.36S WCI  14
ANACONDA         N/A     19  14  79 SW6       30.44F WCI  11
DEER LODGE       N/A     25  25 100 CALM      30.47F
EUREKA           N/A     25  19  80 MISG      30.53S
HAMILTON         N/A     23  21  93 CALM      30.49S
LIBBY            N/A     27  25  93 CALM      30.50F
RONAN            N/A     27  24  88 SE2       30.49F
$$

MTZ008-052>055-141700-
SOUTHWEST MONTANA

CITY           SKY/WX    TMP DP  RH WIND       PRES   REMARKS
BOZEMAN        FOG       23  21  92 CALM      30.47R VSB<1/4
DILLON         FAIR      15  12  88 SE10      30.44R WCI   2
W YELLOWSTONE  FAIR      -8 -11  84 CALM      30.42R
ENNIS          CLOUDY    12  10  92 SE3       30.48R
THREE FORKS      N/A     21  19  92 NW5       30.41R VSB 0
$$

MTZ009-010-012-014-046-048-049-054-141700-
EAST SLOPES AND CENTRAL MONTANA

CITY           SKY/WX    TMP DP  RH WIND       PRES   REMARKS
CUT BANK       FAIR      21  17  84 S5        30.29F
GREAT FALLS    FAIR      29  22  75 S13       30.34F WCI  19
HELENA         FOG       17  16  95 CALM      30.46S VSB 1/2
CHOTEAU          N/A     23  18  80 S7        30.33F WCI  15
$$

MTZ011-013-016-021-045-047-050-051-141700-
NORTH CENTRAL MONTANA

CITY           SKY/WX    TMP DP  RH WIND       PRES   REMARKS
HAVRE          FAIR      24  21  88 SW7       30.34F WCI  16
LEWISTOWN      FAIR      28  23  81 SW10      30.31F WCI  19
N BAR RANCH    FAIR      32  23  69 NW17G25   30.29R WCI  21
CHINOOK          N/A     25  21  86 W6        30.34R WCI  18
$$

MTZ017>020-022>027-061-062-141700-
NORTHEAST MONTANA

CITY           SKY/WX    TMP DP  RH WIND       PRES   REMARKS
GLASGOW        CLOUDY    31  26  82 W5        30.29R
GLENDIVE       CLOUDY    33  27  78 NW17      30.24R WCI  22
JORDAN           N/A     33  24  69 W13       30.30R WCI  24
SIDNEY         CLOUDY    34  27  75 NW17      30.22R WCI  23
WOLF POINT     CLOUDY    36  27  69 NW10      30.27R WCI  28
MALTA          PTCLDY    23  21  93 W12       30.33R WCI  12
PLENTYWOOD       N/A     28  25  86 CALM      30.19S
POPLAR           N/A     34  27  75 NW12      30.26R WCI  25
$$

MTZ028>42-056>058-141700-
SOUTHCENTRAL AND SOUTHEAST MONTANA

CITY           SKY/WX    TMP DP  RH WIND       PRES   REMARKS
BAKER          CLOUDY    30  29  96 NW21G28   30.21R WCI  17
BILLINGS       FAIR      30  23  75 S8        30.33R WCI  22
LIVINGSTON     FAIR      29  24  82 W21       30.39R WCI  16
MILES CITY     CLOUDY    34  24  67 NW15      30.29R WCI  24
BIG TIMBER     CLEAR     32  23  69 W24G32    30.37R WCI  19
EKALAKA          N/A     28  23  81 NW16      30.16  WCI  16
FORSYTH          N/A     34  25  69 W8        30.33R WCI  27
LAUREL           N/A     37  23  56 NW9       30.35R WCI  31
ROUNDUP          N/A     37  21  52 NW13      30.19S WCI  29
$$

REGIONAL REPORTS...DAKOTAS

CITY           SKY/WX    TMP DP  RH WIND       PRES   REMARKS
WILLISTON      CLOUDY    32  25  75 NW14      30.20R WCI  22
MINOT          CLOUDY    30  22  72 NW17      30.12R WCI  18
DICKINSON      CLOUDY    31  27  85 N16G25    30.13R WCI  20
BEACH          CLOUDY    30  30 100 N16       30.22R WCI  19
CROSBY         CLOUDY    30  27  86 W12       30.17S WCI  21
TIOGA          CLOUDY    28  28 100 NW16      30.16R WCI  17
WATFORD CITY   CLOUDY    30  25  80 NW9G17    30.18S WCI  22
BISMARCK       CLOUDY    33  27  78 N13G21    30.11R WCI  24
GRAND FORKS    FLURRIES  23  18  81 N23       30.07R WCI   7
FARGO          CLOUDY    23  19  85 NW6       30.06R WCI  16
BUFFALO SD       N/A     31  28  89 NW28G35   30.10R WCI  17
RAPID CITY     FLURRIES  33  23  66 NW35G47   30.16R WCI  18
$$

REGIONAL REPORTS...WYOMING/IDAHO/WASHINGTON

CITY           SKY/WX    TMP DP  RH WIND       PRES   REMARKS
GILLETTE       LGT SNOW  29  25  85 NW17      30.25R FOG     WCI  17
SHERIDAN       CLOUDY    33  22  63 NW13      30.31R WCI  24
BUFFALO WY     PTSUNNY   32  18  56 N29G38    30.25R WCI  18
CODY           FAIR      24  18  77 S6        30.32R WCI  17
YELLOWSTONE LA   N/A      5   3  91 CALM      30.38R
IDAHO FALLS    FOG       21  20  96 W3        30.49R VSB 1/2
SALMON         CLOUDY    24  21  88 CALM      30.54R
BOISE          CLOUDY    25  22  88 S10       30.56R FOG     WCI  15
SPOKANE        CLOUDY    29  27  92 CALM      30.49S
$$

REGIONAL REPORTS...ALBERTA

CITY           SKY/WX    TMP DP  RH WIND       PRES   REMARKS
EDMONTON       PTCLDY    23  19  86 SW7       30.15F WCI  15
CALGARY        MOCLDY    23  16  74 VRB2      30.20F
LETHBRIDGE     PTCLDY    21  18  86 SW3       30.26F
MEDICINE HAT   MOCLDY    21  19  93 SW9       30.31S WCI  11
$$

REGIONAL REPORTS...SASKATCHEWAN

CITY           SKY/WX    TMP DP  RH WIND       PRES   REMARKS
SWIFT CURRENT  CLEAR     21  19  93 W13       30.21S WCI   9
REGINA         MOCLDY    27  25  93 W13G21    30.15R WCI  16
SASKATOON      CLOUDY    28  25  86 NW14      30.18S WCI  17
$$



USA.gov is the U.S. government's official web portal to all federal, state and local government web resources and services.